Flag for Russia Weather past 2 weeks in Astrakhan, Russia

Now
81 °F

Sunny.


Feels Like: 79 °F
Forecast: 67 / 88 °F
Wind: 17 mph from East

Location: Astrakhan

Current Time: Sep 2, 2014 at 5:41:23 PM

Latest Report: Sep 2, 2014 at 5:00 PM


Visibility: 10 mi

Pressure: 30.07 "Hg

Humidity: 28%

Dew point: 45 °F

Location of AstrakhanLocation

Historic Weather in Astrakhan — Graph

°F

Astrakhan temperature yesterday

Maximum temperature yesterday: 86 °F (at 3:00 PM)
Minimum temperature yesterday: 63 °F (at 1:00 AM)
Average temperature yesterday: 73 °F

Past Weeks' High & Low Weather Summary

 TemperatureHumidityPressure
High100 °F (Aug 19, 1:30 PM)94% (Aug 20, 4:00 AM)30.09 "Hg (Aug 20, 4:00 AM)
Low55 °F (Aug 31, 6:00 AM)14% (Aug 31, 3:30 PM)29.68 "Hg (Aug 28, 5:30 PM)
Average80 °F49%29.90 "Hg
* Reported Aug 18 4:00 PM — Sep 2 4:30 PM, Astrakhan, Weather by CustomWeather, © 2014

Note: Actual official high and low records may vary slightly from our data, if they occured in-between our weather recording intervals... More about our weather records

Advertising

Astrakhan weather history for previous 24 hours

 ConditionsComfort  
Time TempWeatherWind HumidityBarometerVisibility
4:30 PM
Sep 2
82 °FSunny.17 mph28%30.07 "Hg10 mi
4:00 PM81 °FSunny.17 mph30%30.07 "Hg10 mi
3:30 PM82 °FSunny.17 mph30%30.07 "Hg10 mi
3:00 PM82 °FSunny.20 mph26%30.07 "Hg10 mi
2:30 PM82 °FSunny.20 mph26%30.07 "Hg10 mi
2:00 PM82 °FSunny.17 mph28%30.07 "Hg10 mi
1:30 PM84 °FSunny.17 mph27%30.07 "Hg10 mi
1:00 PM82 °FSunny.20 mph28%30.07 "Hg10 mi
12:30 PM82 °FSunny.20 mph28%30.07 "Hg10 mi
12:00 PM81 °FSunny.20 mph32%30.07 "Hg10 mi
11:30 AM81 °FSunny.20 mph32%30.07 "Hg10 mi
11:00 AM81 °FSunny.20 mph32%30.09 "Hg10 mi
10:30 AM79 °FSunny.20 mph34%30.09 "Hg10 mi
10:00 AM77 °FSunny.20 mph36%30.09 "Hg10 mi
9:30 AM75 °FSunny.13 mph41%30.09 "Hg10 mi
9:00 AM73 °FSunny.15 mph41%30.09 "Hg10 mi
8:30 AM70 °FSunny.13 mph46%30.09 "Hg10 mi
8:00 AM66 °FSunny.13 mph52%30.09 "Hg10 mi
7:30 AM64 °FSunny.10 mph52%30.09 "Hg10 mi
6:30 AM61 °FClear.10 mph55%30.07 "Hg10 mi
6:00 AM61 °FClear.10 mph52%30.07 "Hg10 mi
5:30 AM61 °FClear.10 mph52%30.07 "Hg10 mi
5:00 AM63 °FClear.10 mph45%30.07 "Hg10 mi
4:30 AM63 °FClear.10 mph45%30.07 "Hg10 mi
4:00 AM64 °FClear.13 mph40%30.07 "Hg10 mi
3:30 AM64 °FClear.10 mph40%30.07 "Hg10 mi
3:00 AM66 °FClear.13 mph37%30.07 "Hg10 mi
2:30 AM66 °FClear.15 mph37%30.09 "Hg10 mi
2:00 AM66 °FClear.15 mph40%30.07 "Hg10 mi
1:30 AM66 °FClear.13 mph46%30.07 "Hg10 mi
1:00 AM68 °FClear.13 mph49%30.07 "Hg10 mi
12:30 AM66 °FClear.10 mph64%30.07 "Hg10 mi
12:00 AM66 °FClear.8 mph64%30.07 "Hg10 mi
11:30 PM
Sep 1
68 °FClear.10 mph64%30.07 "Hg10 mi
11:00 PM70 °FClear.10 mph60%30.07 "Hg10 mi
10:30 PM70 °FClear.8 mph60%30.07 "Hg10 mi
10:00 PM70 °FClear.8 mph60%30.07 "Hg10 mi
9:30 PM72 °FClear.6 mph61%30.07 "Hg10 mi
9:00 PM72 °FClear.8 mph61%30.07 "Hg10 mi
8:30 PM73 °FClear.8 mph57%30.07 "Hg10 mi
8:00 PM75 °FSunny.10 mph50%30.07 "Hg10 mi
7:30 PM77 °FSunny.10 mph44%30.04 "Hg10 mi
7:00 PM79 °FSunny.10 mph42%30.04 "Hg10 mi
6:30 PM81 °FSunny.15 mph37%30.04 "Hg10 mi
5:30 PM84 °FPassing clouds.8 mph18%30.04 "HgN/A
5:00 PM84 °FPassing clouds.8 mph18%30.04 "HgN/A
Weather by CustomWeather, © 2014

See weather overviewHow to use our weather pages